Location: Central Coast
(33.3208°S, 151.2336°E)
Time: 19:57:09
(UTC+11:00)

N. Korean satellite - Pass Details

Date: 16 October 2017
Orbit: 459 x 517 km, 97.2° (Epoch: 19 October)

Event Time Altitude Azimuth Distance (km) Brightness Sun altitude
Rises 20:40:14 0° 191° (SSW) 2,669 10.9 -19.0°
Reaches altitude 10° 20:43:08 10° 216° (SW) 1,765 10.3 -19.5°
Maximum altitude 20:45:14 14° 249° (WSW) 1,491 10.1 -19.9°
Drops below altitude 10° 20:47:19 10° 283° (WNW) 1,740 10.1 -20.3°
Sets 20:50:09 0° 308° (NW) 2,604 10.6 -20.8°
